Volver al catálogo

SL-16 R/B

ActivoLEO
NORAD 31793·ROCKET BODY·🇷🇺 Russia

Lanzado Jun 29, 2007 desde Baikonur Cosmodrome

Loading…

Próximos Pases (próximas 24 horas)

TLE

ActualizadoSource: Space-Track

Época: Sep 14, 2026, 14:31 UTC

1 31793U 07029B   26257.60552376 -.00000133  00000-0 -43979-4 0  9992
2 31793  70.9757 135.2619 0002131 279.7484  92.7019 14.14864290992091

Sigue SL-16 R/B en tiempo real con AllMySat

Download on the App Store